QPF
0.05 0.06 0.06 0.07 0.07 0.08 0.09 0.10 0.11 0.10 0.10 0.10 0.09 0.08 0.07 0.06 0.05 0.04 0.03 0.02 0.01 0.01 0.01 0.01 0.00 0.00 0.00 0.00 0.00 0.00 0.00 0.00 0.00 0.00 0.00 0.00 0.00 0.00 0.00 0.00 0.00 0.00 0.00
0.03 0.04 0.04 0.04 0.05 0.06 0.06 0.06 0.06 0.06 0.06 0.06 0.06 0.06 0.06 0.06 0.05 0.04 0.04 0.03 0.02 0.02 0.02 0.01 0.01 0.01 0.01 0.01 0.00 0.00 0.00 0.01 0.01 0.00 0.00 0.00 0.00 0.00 0.00 0.00 0.00 0.00 0.00
0.02 0.03 0.03 0.04 0.04 0.05 0.05 0.05 0.05 0.05 0.05 0.06 0.06 0.06 0.05 0.05 0.04 0.04 0.04 0.03 0.02 0.02 0.01 0.01 0.00 0.00 0.01 0.01 0.01 0.01 0.01 0.01 0.01 0.01 0.01 0.00 0.00 0.00 0.01 0.01 0.01 0.01 0.01
0.02 0.02 0.03 0.03 0.04 0.04 0.05 0.05 0.05 0.05 0.05 0.04 0.04 0.04 0.04 0.03 0.03 0.02 0.02 0.02 0.01 0.01 0.00 0.00 0.00 0.00 0.01 0.01 0.01 0.01 0.01 0.01 0.01 0.01 0.01 0.01 0.01 0.01 0.02 0.02 0.02 0.02 0.01
0.01 0.02 0.02 0.02 0.02 0.02 0.03 0.03 0.03 0.02 0.02 0.02 0.02 0.02 0.01 0.01 0.01 0.01 0.01 0.00 0.00 0.00 0.00 0.00 0.00 0.00 0.00 0.00 0.01 0.01 0.02 0.02 0.02 0.01 0.01 0.01 0.01 0.02 0.03 0.03 0.02 0.02 0.01
0.01 0.01 0.01 0.01 0.01 0.01 0.01 0.01 0.01 0.01 0.01 0.01 0.01 0.01 0.01 0.00 0.00 0.00 0.00 0.00 0.00 0.00 0.00 0.00 0.00 0.00 0.00 0.00 0.00 0.00 0.01 0.01 0.02 0.02 0.02 0.02 0.02 0.03 0.05 0.04 0.03 0.03 0.02
0.01 0.01 0.01 0.01 0.01 0.01 0.01 0.01 0.01 0.01 0.01 0.01 0.00 0.00 0.00 0.00 0.00 0.00 0.00 0.00 0.00 0.00 0.00 0.00 0.00 0.00 0.00 0.01 0.01 0.00 0.01 0.01 0.01 0.02 0.03 0.04 0.04 0.05 0.05 0.03 0.03 0.04 0.04
0.01 0.01 0.01 0.00 0.00 0.00 0.00 0.00 0.00 0.01 0.00 0.00 0.00 0.00 0.01 0.01 0.00 0.00 0.00 0.00 0.00 0.00 0.00 0.00 0.00 0.01 0.01 0.00 0.00 0.01 0.03 0.03 0.03 0.02 0.04 0.04 0.04 0.03 0.03 0.02 0.02 0.02 0.02
0.01 0.01 0.00 0.00 0.00 0.00 0.00 0.00 0.00 0.01 0.01 0.00 0.00 0.00 0.01 0.01 0.00 0.00 0.00 0.00 0.00 0.00 0.00 0.01 0.00 0.01 0.00 0.00 0.00 0.02 0.03 0.05 0.02 0.01 0.01 0.01 0.01 0.00 0.01 0.01 0.03 0.04 0.03
0.01 0.00 0.00 0.00 0.00 0.00 0.00 0.01 0.00 0.01 0.01 0.00 0.00 0.01 0.01 0.01 0.00 0.00 0.00 0.00 0.00 0.00 0.01 0.01 0.01 0.00 0.00 0.00 0.01 0.02 0.03 0.05 0.05 0.05 0.04 0.03 0.03 0.03 0.01 0.02 0.04 0.04 0.03
0.01 0.00 0.00 0.00 0.00 0.00 0.01 0.01 0.01 0.00 0.01 0.00 0.00 0.01 0.01 0.00 0.00 0.00 0.00 0.00 0.00 0.00 0.01 0.02 0.02 0.00 0.00 0.00 0.00 0.02 0.03 0.02 0.03 0.05 0.05 0.05 0.05 0.05 0.05 0.04 0.05 0.04 0.04
0.00 0.00 0.01 0.01 0.00 0.00 0.01 0.01 0.01 0.00 0.01 0.01 0.01 0.01 0.01 0.00 0.00 0.00 0.00 0.00 0.00 0.01 0.02 0.02 0.02 0.01 0.00 0.00 0.01 0.01 0.01 0.02 0.05 0.07 0.07 0.06 0.05 0.04 0.04 0.03 0.03 0.04 0.04
0.01 0.01 0.01 0.01 0.00 0.00 0.01 0.01 0.01 0.01 0.00 0.00 0.00 0.01 0.01 0.01 0.00 0.00 0.00 0.00 0.00 0.01 0.02 0.01 0.01 0.00 0.01 0.03 0.02 0.01 0.02 0.06 0.07 0.08 0.09 0.06 0.03 0.02 0.03 0.03 0.04 0.05 0.07
0.01 0.01 0.01 0.01 0.01 0.00 0.00 0.00 0.00 0.00 0.00 0.00 0.01 0.01 0.01 0.01 0.01 0.00 0.00 0.01 0.01 0.01 0.02 0.02 0.02 0.02 0.02 0.04 0.05 0.05 0.06 0.06 0.05 0.07 0.08 0.07 0.06 0.06 0.06 0.05 0.05 0.05 0.07
0.01 0.01 0.01 0.01 0.01 0.01 0.01 0.00 0.00 0.00 0.00 0.00 0.00 0.00 0.01 0.01 0.00 0.00 0.00 0.00 0.01 0.01 0.01 0.03 0.05 0.05 0.06 0.06 0.06 0.06 0.07 0.07 0.06 0.07 0.08 0.09 0.08 0.08 0.07 0.06 0.05 0.06 0.07
0.01 0.01 0.01 0.01 0.00 0.00 0.00 0.00 0.00 0.00 0.00 0.00 0.00 0.00 0.00 0.00 0.00 0.00 0.00 0.00 0.00 0.01 0.02 0.04 0.04 0.04 0.03 0.03 0.04 0.04 0.04 0.04 0.04 0.05 0.07 0.07 0.06 0.05 0.06 0.07 0.06 0.06 0.07
0.01 0.00 0.00 0.00 0.00 0.00 0.00 0.01 0.01 0.01 0.00 0.00 0.00 0.00 0.00 0.00 0.00 0.00 0.01 0.01 0.01 0.02 0.04 0.04 0.03 0.02 0.02 0.03 0.03 0.03 0.03 0.02 0.02 0.03 0.05 0.06 0.04 0.04 0.05 0.06 0.05 0.05 0.05
0.00 0.00 0.00 0.00 0.00 0.00 0.00 0.00 0.01 0.01 0.01 0.01 0.00 0.00 0.00 0.00 0.00 0.00 0.00 0.01 0.02 0.03 0.04 0.04 0.02 0.01 0.01 0.01 0.02 0.01 0.01 0.01 0.01 0.02 0.03 0.03 0.03 0.04 0.04 0.05 0.05 0.04 0.05
0.00 0.00 0.00 0.00 0.00 0.00 0.00 0.00 0.00 0.00 0.01 0.01 0.01 0.01 0.00 0.00 0.00 0.00 0.01 0.02 0.02 0.01 0.01 0.01 0.01 0.01 0.00 0.00 0.01 0.01 0.00 0.00 0.01 0.01 0.02 0.02 0.02 0.03 0.04 0.04 0.05 0.02 0.04
0.00 0.00 0.00 0.00 0.00 0.00 0.00 0.00 0.00 0.00 0.01 0.01 0.01 0.01 0.01 0.02 0.02 0.02 0.02 0.01 0.01 0.01 0.00 0.00 0.00 0.00 0.00 0.00 0.00 0.00 0.00 0.00 0.00 0.00 0.01 0.01 0.01 0.01 0.02 0.02 0.03 0.04 0.04
0.00 0.00 0.00 0.00 0.00 0.00 0.00 0.00 0.00 0.01 0.01 0.01 0.01 0.00 0.00 0.01 0.02 0.02 0.01 0.01 0.00 0.00 0.00 0.00 0.00 0.00 0.00 0.00 0.00 0.00 0.00 0.00 0.00 0.00 0.00 0.00 0.00 0.01 0.01 0.01 0.01 0.02 0.03
0.00 0.00 0.00 0.00 0.00 0.00 0.00 0.00 0.00 0.00 0.01 0.01 0.01 0.00 0.00 0.01 0.01 0.01 0.01 0.00 0.00 0.00 0.00 0.00 0.00 0.00 0.00 0.00 0.00 0.00 0.00 0.00 0.00 0.00 0.00 0.00 0.00 0.00 0.00 0.00 0.00 0.01 0.02
0.00 0.00 0.00 0.00 0.00 0.00 0.00 0.00 0.00 0.00 0.01 0.01 0.01 0.00 0.01 0.01 0.01 0.01 0.00 0.00 0.00 0.00 0.00 0.00 0.00 0.00 0.00 0.00 0.00 0.00 0.00 0.00 0.00 0.00 0.00 0.00 0.00 0.00 0.00 0.00 0.00 0.00 0.01
0.00 0.00 0.00 0.00 0.00 0.00 0.00 0.00 0.00 0.00 0.00 0.00 0.00 0.00 0.00 0.00 0.00 0.00 0.00 0.00 0.00 0.00 0.00 0.00 0.00 0.00 0.00 0.00 0.00 0.00 0.00 0.00 0.00 0.00 0.00 0.00 0.00 0.00 0.00 0.00 0.00 0.00 0.00
0.00 0.00 0.00 0.00 0.00 0.00 0.00 0.00 0.00 0.00 0.00 0.00 0.00 0.00 0.00 0.00 0.00 0.00 0.00 0.00 0.00 0.00 0.00 0.00 0.00 0.00 0.00 0.00 0.00 0.00 0.00 0.00 0.00 0.00 0.00 0.00 0.00 0.00 0.00 0.00 0.00 0.00 0.00
0.00 0.00 0.00 0.00 0.00 0.00 0.00 0.00 0.00 0.00 0.00 0.00 0.00 0.00 0.00 0.00 0.00 0.00 0.00 0.00 0.00 0.00 0.00 0.00 0.00 0.00 0.00 0.00 0.00 0.00 0.00 0.00 0.00 0.00 0.00 0.00 0.00 0.00 0.00 0.00 0.00 0.00 0.00
MSLP
1021.36 1021.81 1022.26 1022.67 1023.03 1023.31 1023.53 1023.68 1023.78 1023.85 1023.92 1023.99 1024.08 1024.17 1024.26 1024.34 1024.38 1024.38 1024.33 1024.23 1024.09 1023.91 1023.71 1023.50 1023.28 1023.06 1022.82 1022.57 1022.29 1021.98 1021.65 1021.31 1020.98 1020.68 1020.43 1020.24 1020.12 1020.07 1020.05 1020.06 1020.06 1020.04 1019.96
1022.28 1022.69 1023.08 1023.43 1023.73 1023.96 1024.13 1024.23 1024.30 1024.34 1024.37 1024.42 1024.48 1024.55 1024.63 1024.69 1024.72 1024.70 1024.63 1024.51 1024.35 1024.14 1023.91 1023.67 1023.42 1023.16 1022.90 1022.61 1022.31 1021.98 1021.63 1021.27 1020.92 1020.58 1020.28 1020.04 1019.85 1019.71 1019.61 1019.53 1019.45 1019.34 1019.20
1022.96 1023.33 1023.68 1023.99 1024.25 1024.44 1024.58 1024.66 1024.70 1024.72 1024.74 1024.77 1024.82 1024.88 1024.94 1024.98 1025.00 1024.97 1024.89 1024.75 1024.57 1024.34 1024.09 1023.82 1023.55 1023.27 1022.98 1022.68 1022.37 1022.03 1021.68 1021.31 1020.93 1020.57 1020.24 1019.95 1019.70 1019.48 1019.30 1019.12 1018.95 1018.75 1018.54
1023.44 1023.78 1024.10 1024.38 1024.61 1024.79 1024.91 1024.98 1025.02 1025.04 1025.05 1025.07 1025.11 1025.16 1025.21 1025.24 1025.24 1025.20 1025.10 1024.95 1024.75 1024.51 1024.24 1023.96 1023.67 1023.37 1023.08 1022.77 1022.45 1022.11 1021.76 1021.39 1021.01 1020.64 1020.28 1019.94 1019.64 1019.36 1019.09 1018.83 1018.57 1018.29 1017.99
1023.80 1024.11 1024.40 1024.67 1024.88 1025.05 1025.16 1025.22 1025.26 1025.28 1025.29 1025.31 1025.34 1025.38 1025.41 1025.44 1025.42 1025.37 1025.27 1025.11 1024.90 1024.65 1024.37 1024.08 1023.78 1023.48 1023.17 1022.86 1022.54 1022.20 1021.84 1021.47 1021.09 1020.71 1020.33 1019.96 1019.61 1019.27 1018.94 1018.61 1018.27 1017.92 1017.55
1024.10 1024.39 1024.66 1024.90 1025.09 1025.24 1025.34 1025.40 1025.43 1025.45 1025.46 1025.47 1025.50 1025.53 1025.55 1025.56 1025.54 1025.48 1025.36 1025.20 1024.99 1024.74 1024.46 1024.17 1023.86 1023.56 1023.24 1022.93 1022.60 1022.26 1021.90 1021.52 1021.13 1020.73 1020.33 1019.94 1019.55 1019.17 1018.80 1018.41 1018.02 1017.61 1017.19
1024.40 1024.66 1024.90 1025.11 1025.28 1025.40 1025.48 1025.53 1025.54 1025.55 1025.55 1025.56 1025.58 1025.59 1025.61 1025.61 1025.58 1025.51 1025.40 1025.24 1025.03 1024.79 1024.51 1024.22 1023.92 1023.60 1023.28 1022.96 1022.62 1022.26 1021.88 1021.49 1021.08 1020.66 1020.24 1019.82 1019.41 1019.00 1018.59 1018.18 1017.76 1017.33 1016.89
1024.71 1024.93 1025.14 1025.31 1025.43 1025.52 1025.57 1025.59 1025.60 1025.59 1025.58 1025.58 1025.59 1025.61 1025.62 1025.61 1025.58 1025.52 1025.40 1025.24 1025.04 1024.81 1024.53 1024.24 1023.94 1023.62 1023.28 1022.94 1022.58 1022.19 1021.79 1021.37 1020.93 1020.48 1020.03 1019.58 1019.14 1018.71 1018.29 1017.87 1017.45 1017.03 1016.60
1025.01 1025.20 1025.36 1025.48 1025.57 1025.61 1025.63 1025.62 1025.61 1025.59 1025.58 1025.58 1025.60 1025.61 1025.62 1025.62 1025.59 1025.53 1025.41 1025.26 1025.06 1024.82 1024.55 1024.25 1023.94 1023.60 1023.25 1022.88 1022.49 1022.07 1021.62 1021.16 1020.68 1020.19 1019.70 1019.22 1018.76 1018.31 1017.89 1017.48 1017.08 1016.68 1016.29
1025.28 1025.43 1025.54 1025.62 1025.66 1025.67 1025.66 1025.63 1025.61 1025.60 1025.60 1025.61 1025.64 1025.67 1025.70 1025.70 1025.67 1025.60 1025.49 1025.33 1025.12 1024.87 1024.58 1024.27 1023.93 1023.57 1023.19 1022.79 1022.35 1021.89 1021.40 1020.88 1020.35 1019.81 1019.28 1018.77 1018.28 1017.82 1017.40 1017.00 1016.63 1016.28 1015.94
1025.47 1025.58 1025.66 1025.70 1025.70 1025.69 1025.67 1025.65 1025.64 1025.65 1025.68 1025.73 1025.79 1025.84 1025.89 1025.90 1025.87 1025.79 1025.66 1025.48 1025.24 1024.96 1024.64 1024.30 1023.92 1023.53 1023.11 1022.66 1022.18 1021.67 1021.13 1020.56 1019.98 1019.39 1018.81 1018.26 1017.74 1017.27 1016.84 1016.46 1016.13 1015.82 1015.55
1025.57 1025.65 1025.69 1025.71 1025.70 1025.69 1025.67 1025.68 1025.71 1025.77 1025.85 1025.95 1026.05 1026.15 1026.21 1026.23 1026.20 1026.10 1025.93 1025.70 1025.41 1025.08 1024.72 1024.32 1023.90 1023.46 1022.99 1022.49 1021.97 1021.41 1020.82 1020.21 1019.57 1018.94 1018.31 1017.72 1017.17 1016.68 1016.25 1015.89 1015.58 1015.33 1015.11
1025.56 1025.62 1025.65 1025.66 1025.65 1025.66 1025.68 1025.73 1025.82 1025.95 1026.10 1026.27 1026.43 1026.56 1026.65 1026.67 1026.61 1026.47 1026.25 1025.96 1025.60 1025.20 1024.76 1024.30 1023.82 1023.33 1022.81 1022.28 1021.71 1021.11 1020.49 1019.83 1019.16 1018.48 1017.82 1017.20 1016.62 1016.11 1015.67 1015.31 1015.03 1014.81 1014.65
1025.47 1025.52 1025.54 1025.55 1025.57 1025.61 1025.68 1025.80 1025.96 1026.17 1026.40 1026.63 1026.84 1027.01 1027.11 1027.12 1027.03 1026.84 1026.55 1026.18 1025.74 1025.26 1024.74 1024.21 1023.67 1023.12 1022.56 1021.99 1021.40 1020.78 1020.13 1019.45 1018.75 1018.05 1017.36 1016.71 1016.11 1015.59 1015.14 1014.78 1014.51 1014.32 1014.20
1025.33 1025.37 1025.39 1025.41 1025.46 1025.53 1025.66 1025.85 1026.09 1026.37 1026.67 1026.97 1027.22 1027.41 1027.51 1027.50 1027.36 1027.11 1026.74 1026.29 1025.76 1025.19 1024.60 1024.00 1023.41 1022.83 1022.24 1021.66 1021.05 1020.43 1019.77 1019.09 1018.39 1017.67 1016.97 1016.31 1015.69 1015.15 1014.70 1014.34 1014.08 1013.90 1013.81
1025.18 1025.20 1025.22 1025.26 1025.32 1025.44 1025.62 1025.86 1026.16 1026.50 1026.86 1027.19 1027.47 1027.67 1027.75 1027.70 1027.51 1027.19 1026.75 1026.22 1025.62 1024.98 1024.34 1023.70 1023.07 1022.47 1021.88 1021.30 1020.71 1020.10 1019.46 1018.79 1018.09 1017.39 1016.69 1016.02 1015.41 1014.86 1014.40 1014.04 1013.78 1013.61 1013.53
1025.03 1025.04 1025.06 1025.10 1025.18 1025.32 1025.54 1025.82 1026.15 1026.53 1026.91 1027.26 1027.54 1027.72 1027.78 1027.69 1027.45 1027.07 1026.57 1025.98 1025.34 1024.66 1023.99 1023.33 1022.71 1022.12 1021.55 1020.99 1020.43 1019.85 1019.24 1018.60 1017.93 1017.24 1016.56 1015.90 1015.28 1014.74 1014.28 1013.92 1013.66 1013.49 1013.41
1024.92 1024.91 1024.92 1024.95 1025.04 1025.19 1025.42 1025.71 1026.06 1026.44 1026.82 1027.17 1027.43 1027.58 1027.60 1027.47 1027.19 1026.77 1026.25 1025.63 1024.97 1024.29 1023.63 1023.00 1022.40 1021.85 1021.32 1020.81 1020.29 1019.76 1019.19 1018.58 1017.94 1017.27 1016.60 1015.96 1015.35 1014.81 1014.36 1014.00 1013.73 1013.55 1013.46
1024.85 1024.82 1024.81 1024.83 1024.91 1025.06 1025.29 1025.57 1025.91 1026.28 1026.64 1026.95 1027.18 1027.30 1027.28 1027.12 1026.82 1026.39 1025.86 1025.26 1024.62 1023.98 1023.36 1022.78 1022.24 1021.75 1021.28 1020.83 1020.36 1019.87 1019.34 1018.76 1018.14 1017.50 1016.84 1016.21 1015.61 1015.07 1014.62 1014.25 1013.98 1013.79 1013.68
1024.82 1024.77 1024.74 1024.75 1024.82 1024.96 1025.17 1025.43 1025.75 1026.08 1026.41 1026.68 1026.88 1026.96 1026.92 1026.74 1026.43 1026.02 1025.52 1024.96 1024.38 1023.81 1023.27 1022.77 1022.31 1021.89 1021.49 1021.09 1020.67 1020.22 1019.71 1019.15 1018.55 1017.91 1017.26 1016.62 1016.03 1015.49 1015.03 1014.66 1014.37 1014.16 1014.02
1024.81 1024.75 1024.71 1024.72 1024.77 1024.90 1025.09 1025.33 1025.62 1025.91 1026.20 1026.44 1026.59 1026.65 1026.59 1026.42 1026.13 1025.76 1025.31 1024.82 1024.33 1023.84 1023.40 1022.99 1022.62 1022.27 1021.94 1021.59 1021.21 1020.77 1020.28 1019.72 1019.11 1018.46 1017.80 1017.16 1016.55 1016.01 1015.53 1015.15 1014.84 1014.61 1014.43
1024.83 1024.77 1024.72 1024.73 1024.78 1024.90 1025.07 1025.29 1025.55 1025.82 1026.06 1026.27 1026.40 1026.44 1026.39 1026.23 1025.98 1025.66 1025.28 1024.88 1024.48 1024.10 1023.75 1023.43 1023.14 1022.87 1022.58 1022.27 1021.90 1021.47 1020.97 1020.39 1019.77 1019.09 1018.41 1017.75 1017.12 1016.56 1016.07 1015.66 1015.33 1015.07 1014.86
1024.87 1024.81 1024.77 1024.78 1024.84 1024.96 1025.12 1025.33 1025.57 1025.81 1026.03 1026.21 1026.33 1026.36 1026.32 1026.19 1025.99 1025.73 1025.43 1025.12 1024.82 1024.53 1024.27 1024.03 1023.81 1023.58 1023.33 1023.03 1022.66 1022.22 1021.70 1021.10 1020.43 1019.73 1019.02 1018.32 1017.67 1017.09 1016.58 1016.15 1015.80 1015.51 1015.27
1024.91 1024.86 1024.85 1024.88 1024.95 1025.07 1025.24 1025.44 1025.66 1025.88 1026.09 1026.25 1026.36 1026.40 1026.37 1026.27 1026.12 1025.92 1025.70 1025.47 1025.25 1025.05 1024.86 1024.69 1024.51 1024.31 1024.08 1023.78 1023.40 1022.94 1022.38 1021.75 1021.05 1020.32 1019.57 1018.85 1018.17 1017.56 1017.03 1016.58 1016.21 1015.90 1015.63
1024.96 1024.94 1024.95 1024.99 1025.08 1025.22 1025.39 1025.59 1025.80 1026.01 1026.19 1026.35 1026.45 1026.50 1026.49 1026.42 1026.32 1026.18 1026.02 1025.86 1025.70 1025.56 1025.43 1025.30 1025.16 1024.98 1024.75 1024.44 1024.05 1023.56 1022.98 1022.32 1021.59 1020.83 1020.06 1019.31 1018.61 1017.99 1017.44 1016.97 1016.59 1016.26 1015.98
1025.02 1025.02 1025.06 1025.13 1025.24 1025.38 1025.55 1025.75 1025.95 1026.14 1026.32 1026.46 1026.56 1026.62 1026.62 1026.59 1026.52 1026.43 1026.32 1026.22 1026.12 1026.02 1025.93 1025.82 1025.70 1025.53 1025.30 1024.98 1024.58 1024.08 1023.48 1022.80 1022.06 1021.29 1020.51 1019.75 1019.04 1018.40 1017.84 1017.36 1016.96 1016.63 1016.34
Thickness
5629 5626 5623 5618 5614 5610 5605 5600 5596 5591 5588 5585 5581 5578 5575 5572 5568 5566 5564 5561 5559 5556 5553 5550 5546 5542 5541 5538 5535 5532 5529 5525 5523 5521 5517 5512 5506 5502 5500 5499 5498 5497 5498
5612 5609 5605 5601 5597 5592 5588 5583 5580 5576 5572 5568 5565 5562 5558 5555 5552 5550 5548 5545 5542 5539 5536 5533 5529 5526 5521 5519 5515 5513 5509 5503 5500 5499 5496 5494 5491 5489 5487 5486 5486 5487 5486
5596 5593 5589 5585 5580 5576 5572 5568 5564 5561 5557 5553 5551 5547 5543 5540 5537 5535 5532 5529 5525 5522 5518 5515 5511 5507 5504 5502 5496 5495 5492 5488 5483 5481 5481 5479 5478 5478 5476 5476 5477 5475 5475
5581 5578 5574 5569 5565 5562 5558 5554 5551 5547 5544 5540 5536 5533 5530 5526 5523 5521 5517 5513 5510 5506 5502 5498 5494 5490 5486 5483 5481 5477 5474 5471 5469 5468 5468 5467 5467 5467 5465 5466 5467 5467 5465
5566 5562 5558 5555 5551 5547 5544 5540 5537 5534 5531 5527 5523 5520 5516 5512 5506 5502 5501 5499 5494 5491 5487 5483 5479 5472 5466 5464 5463 5462 5460 5458 5458 5458 5458 5458 5458 5456 5456 5455 5456 5457 5458
5552 5549 5545 5541 5538 5534 5531 5527 5524 5521 5517 5514 5510 5507 5502 5496 5486 5483 5481 5482 5479 5476 5472 5469 5465 5462 5457 5452 5449 5446 5444 5445 5447 5446 5447 5447 5447 5448 5447 5446 5447 5448 5451
5540 5537 5534 5530 5527 5524 5521 5516 5512 5509 5505 5501 5497 5493 5488 5480 5472 5468 5465 5465 5466 5461 5458 5455 5454 5453 5447 5446 5443 5441 5441 5439 5436 5436 5438 5440 5441 5442 5440 5441 5441 5442 5445
5530 5526 5523 5520 5516 5512 5509 5505 5501 5497 5494 5490 5485 5481 5476 5467 5459 5455 5452 5454 5454 5450 5447 5444 5441 5440 5438 5432 5434 5437 5440 5440 5437 5436 5436 5436 5438 5437 5436 5437 5437 5439 5442
5519 5516 5512 5509 5506 5502 5499 5494 5490 5487 5483 5480 5475 5470 5465 5457 5448 5444 5440 5445 5445 5442 5439 5436 5432 5431 5425 5423 5427 5433 5437 5438 5438 5436 5435 5435 5435 5435 5433 5434 5439 5440 5445
5510 5506 5502 5499 5496 5492 5488 5485 5481 5478 5474 5471 5465 5460 5454 5448 5438 5433 5429 5435 5435 5434 5433 5432 5427 5425 5422 5421 5425 5431 5435 5437 5438 5439 5439 5439 5440 5440 5437 5435 5438 5440 5443
5500 5497 5493 5490 5487 5483 5479 5475 5472 5470 5466 5462 5457 5452 5446 5438 5431 5425 5421 5424 5426 5427 5429 5430 5429 5423 5423 5423 5423 5429 5432 5432 5436 5440 5443 5446 5447 5447 5445 5443 5441 5440 5441
5492 5489 5485 5482 5480 5477 5472 5468 5465 5462 5461 5457 5451 5446 5441 5435 5427 5422 5418 5416 5415 5421 5426 5428 5427 5424 5425 5426 5429 5432 5432 5433 5440 5443 5446 5449 5451 5452 5451 5449 5446 5443 5440
5484 5481 5478 5475 5472 5469 5467 5464 5462 5458 5457 5453 5448 5443 5439 5434 5428 5422 5420 5418 5418 5420 5425 5424 5425 5428 5429 5434 5434 5435 5436 5441 5444 5447 5449 5451 5453 5453 5451 5450 5449 5447 5444
5477 5474 5472 5470 5468 5464 5461 5460 5458 5455 5451 5447 5442 5439 5435 5432 5427 5423 5421 5423 5423 5425 5427 5429 5431 5433 5435 5436 5439 5442 5444 5446 5447 5449 5451 5452 5454 5454 5453 5453 5451 5449 5447
5471 5469 5467 5466 5464 5459 5457 5451 5449 5443 5437 5435 5435 5433 5431 5428 5419 5412 5413 5419 5420 5423 5424 5432 5436 5439 5441 5443 5445 5447 5448 5449 5451 5452 5453 5454 5456 5456 5455 5454 5451 5450 5448
5466 5465 5464 5462 5460 5459 5456 5450 5437 5434 5429 5425 5422 5420 5423 5417 5415 5415 5415 5417 5420 5422 5427 5435 5438 5440 5442 5443 5445 5447 5449 5450 5451 5453 5454 5455 5456 5457 5456 5455 5453 5451 5449
5461 5460 5460 5459 5458 5456 5454 5451 5445 5434 5427 5424 5421 5419 5417 5416 5416 5417 5419 5421 5423 5425 5433 5436 5437 5439 5441 5443 5445 5447 5449 5450 5450 5452 5454 5454 5455 5456 5455 5454 5452 5450 5448
5458 5455 5455 5456 5455 5454 5451 5448 5445 5442 5437 5432 5424 5420 5419 5418 5418 5420 5422 5426 5431 5434 5435 5436 5437 5439 5441 5443 5445 5446 5448 5450 5451 5452 5453 5453 5454 5454 5454 5453 5452 5449 5447
5457 5456 5454 5454 5453 5451 5449 5446 5444 5440 5438 5435 5431 5426 5422 5422 5421 5423 5425 5431 5434 5435 5435 5436 5437 5438 5440 5442 5444 5445 5447 5449 5449 5451 5452 5451 5452 5452 5452 5452 5451 5446 5445
5454 5446 5448 5452 5452 5449 5447 5444 5442 5439 5437 5434 5431 5429 5427 5428 5429 5429 5429 5431 5433 5433 5434 5435 5436 5437 5439 5441 5443 5445 5447 5448 5449 5450 5450 5450 5450 5451 5451 5452 5451 5450 5448
5455 5450 5442 5449 5450 5447 5445 5442 5440 5438 5435 5433 5430 5425 5419 5428 5430 5429 5430 5430 5431 5431 5431 5432 5435 5437 5438 5439 5440 5441 5443 5445 5446 5446 5446 5447 5449 5449 5450 5451 5450 5449 5449
5454 5453 5451 5450 5447 5445 5443 5441 5439 5436 5434 5432 5430 5429 5422 5427 5430 5430 5430 5430 5429 5429 5429 5430 5433 5434 5434 5434 5435 5437 5439 5441 5441 5441 5442 5445 5447 5448 5449 5449 5448 5448 5446
5453 5452 5450 5448 5445 5438 5441 5440 5437 5436 5433 5432 5431 5430 5430 5430 5430 5430 5429 5429 5428 5428 5428 5428 5430 5431 5430 5430 5431 5433 5434 5433 5433 5434 5438 5443 5446 5447 5447 5446 5447 5447 5446
5453 5452 5450 5447 5445 5443 5442 5439 5437 5436 5433 5432 5431 5431 5430 5429 5430 5429 5429 5428 5428 5427 5427 5427 5427 5427 5428 5429 5429 5430 5427 5426 5427 5432 5436 5441 5444 5445 5445 5445 5445 5445 5445
5455 5452 5450 5447 5445 5443 5441 5440 5437 5436 5434 5433 5432 5431 5431 5431 5430 5429 5428 5427 5427 5427 5427 5427 5427 5426 5426 5427 5425 5425 5425 5427 5428 5430 5434 5441 5443 5442 5443 5444 5444 5444 5443
5457 5453 5451 5449 5446 5444 5442 5440 5438 5436 5435 5434 5433 5432 5432 5431 5430 5429 5428 5427 5427 5428 5427 5426 5426 5426 5424 5425 5424 5424 5426 5428 5431 5433 5434 5440 5442 5440 5440 5444 5444 5444 5443